EW5314 Weather Reports


Display with metric or nautical units.
time (UTC)temp
F
wind
direction
speed
MPH
gust
MPH
rain 1hr
in
rain 24hr
in
rain mn
in
humidity
%
barometer
mb
20260503024502 75 170 0.0 1.0 0.00 0.00 0.00 89 1014.1
20260503023101 75 170 0.0 2.0 0.00 0.00 0.00 88 1014.0
20260503021559 75 168 0.0 2.0 0.00 0.00 0.00 89 1013.6
20260503021502 75 168 0.0 2.0 0.00 0.00 0.00 89 1013.5
20260503020100 74 263 0.0 2.0 0.00 0.00 0.00 88 1013.9
20260503014615 74 117 0.0 2.0 0.00 0.00 0.00 88 1013.5
20260503013058 74 95 0.0 0.0 0.00 0.00 0.00 88 1013.6
20260503011556 74 90 0.0 0.0 0.00 0.00 0.00 88 1013.7
20260503010056 74 90 0.0 1.0 0.00 0.00 0.00 88 1013.6
20260503004556 74 53 0.0 2.0 0.00 0.00 0.00 88 1013.7
20260503003103 74 95 0.0 0.0 0.00 0.00 0.00 87 1013.4
20260503001608 75 95 3.0 8.0 0.00 0.00 0.00 88 1013.0
20260503000051 78 76 5.0 13.0 0.00 0.00 0.00 82 1013.1
20260502234550 83 352 2.0 9.0 0.00 0.00 0.00 81 1012.6
20260502233046 84 283 2.0 9.0 0.00 0.00 0.00 80 1012.4
20260502231543 84 305 2.0 7.0 0.00 0.00 0.00 79 1012.2
20260502230042 85 342 5.0 11.0 0.00 0.00 0.00 77 1012.2
20260502224542 85 2 3.0 12.0 0.00 0.00 0.00 75 1011.8
20260502223042 87 307 1.0 8.0 0.00 0.00 0.00 72 1011.7
20260502221544 87 328 3.0 8.0 0.00 0.00 0.00 70 1011.4
20260502220040 87 324 1.0 13.0 0.00 0.00 0.00 68 1011.4
20260502214547 89 270 3.0 17.0 0.00 0.00 0.00 65 1011.1
20260502213040 90 336 5.0 11.0 0.00 0.00 0.00 63 1011.1
20260502211538 91 288 3.0 11.0 0.00 0.00 0.00 60 1011.0
20260502210038 92 11 7.0 15.0 0.00 0.00 0.00 58 1010.9
20260502204536 92 272 4.0 10.0 0.00 0.00 0.00 56 1010.6
20260502203037 92 285 3.0 15.0 0.00 0.00 0.00 59 1010.6
20260502201533 92 338 6.0 14.0 0.00 0.00 0.00 56 1010.7
20260502200033 92 305 4.0 10.0 0.00 0.00 0.00 55 1010.7
20260502194531 92 359 3.0 15.0 0.00 0.00 0.00 54 1010.8
20260502193032 92 291 8.0 16.0 0.00 0.00 0.00 55 1011.0
20260502191529 93 282 5.0 16.0 0.00 0.00 0.00 54 1011.2
20260502190026 93 315 5.0 13.0 0.00 0.00 0.00 52 1011.3
20260502184532 93 334 5.0 15.0 0.00 0.00 0.00 53 1011.4
20260502183023 92 353 4.0 13.0 0.00 0.00 0.00 57 1011.6
20260502181528 92 298 6.0 13.0 0.00 0.00 0.00 57 1011.7
20260502163012 90 325 3.0 13.0 0.00 0.00 0.00 71 1012.0
20260502161510 91 261 8.0 16.0 0.00 0.00 0.00 67 1012.1
20260502151622 88 338 5.0 12.0 0.00 0.00 0.00 74 1012.1
20260502150107 87 287 7.0 15.0 0.00 0.00 0.00 75 1012.0
20260502123023 75 271 0.0 5.0 0.00 0.00 0.00 90 1011.4
20260502121519 74 257 1.0 5.0 0.00 0.00 0.00 91 1011.3
20260502114515 72 261 0.0 1.0 0.00 0.00 0.00 92 1011.3
20260502113014 72 253 0.0 0.0 0.00 0.00 0.00 92 1011.3
20260502111515 72 253 0.0 5.0 0.00 0.00 0.00 92 1011.3
20260502110013 71 249 1.0 5.0 0.00 0.00 0.00 91 1011.2
20260502104512 72 238 0.0 3.0 0.00 0.00 0.00 91 1011.2
20260502103013 72 234 0.0 3.0 0.00 0.00 0.00 91 1011.2
20260502101511 72 193 0.0 3.0 0.00 0.00 0.00 91 1011.2
20260502091507 71 190 0.0 3.0 0.00 0.00 0.00 92 1011.4
20260502070100 70 151 0.0 0.0 0.00 0.00 0.00 91 1012.0
20260502064602 70 149 1.0 3.0 0.00 0.00 0.00 91 1011.8
20260502063057 70 172 0.0 3.0 0.00 0.00 0.00 90 1012.0
20260502061555 71 230 2.0 8.0 0.00 0.00 0.00 90 1012.0
20260502060056 71 240 0.0 1.0 0.00 0.00 0.00 90 1011.8
20260502054555 72 240 0.0 2.0 0.00 0.00 0.00 90 1011.7
20260502053108 72 250 0.0 1.0 0.00 0.00 0.00 90 1011.7
20260502051550 72 250 0.0 2.0 0.00 0.00 0.00 89 1011.9
20260502050047 72 258 0.0 1.0 0.00 0.00 0.00 89 1011.8
20260502044545 73 258 0.0 1.0 0.00 0.00 0.00 88 1011.8
20260502043044 73 258 0.0 1.0 0.00 0.00 0.00 87 1011.8
20260502041544 73 258 0.0 0.0 0.00 0.00 0.00 87 1011.9
20260502040044 73 268 0.0 1.0 0.00 0.00 0.00 86 1012.1
20260502034542 74 268 0.0 0.0 0.00 0.00 0.00 86 1012.2
20260502033041 74 282 0.0 0.0 0.00 0.00 0.00 86 1012.3
20260502031540 74 282 0.0 0.0 0.00 0.00 0.00 85 1012.3
20260502030052 74 290 0.0 0.0 0.00 0.00 0.00 84 1012.3